CCXZV CJL6-CYWG

Flight info

Callsign CCXZV
Flight time 0h 23m
Altitude 5000
Route CJL6 KAVKI CYWG
Aircraft RV14/L-V/N

Departure

Time 2026-05-06 16:30
Airport Altona Municipal Airport (CJL6)

Arrival

Time 2026-05-06 16:54
Airport Winnipeg / James Armstrong Richardson International Airport (CYWG)
Time Latitude Longitude Altitude Speed Heading
2026-05-06 16:19 49.09751 -97.52832 811 ft 0 kts 359°
2026-05-06 16:24 49.09751 -97.52833 816 ft 0 kts 359°
2026-05-06 16:25 49.09751 -97.52832 816 ft 0 kts 359°
2026-05-06 16:25 49.09751 -97.52833 816 ft 0 kts 359°
2026-05-06 16:27 49.09756 -97.52825 810 ft 5 kts 82°
2026-05-06 16:27 49.09701 -97.52839 811 ft 15 kts 262°
2026-05-06 16:27 49.09678 -97.52912 813 ft 7 kts 189°
2026-05-06 16:28 49.09613 -97.52916 814 ft 12 kts 177°
2026-05-06 16:28 49.09500 -97.52925 812 ft 20 kts 177°
2026-05-06 16:28 49.09337 -97.52915 808 ft 27 kts 177°
2026-05-06 16:28 49.09135 -97.52912 806 ft 29 kts 179°
2026-05-06 16:29 49.09013 -97.52929 806 ft 7 kts 307°
2026-05-06 16:29 49.09037 -97.52933 806 ft 0 kts 359°
2026-05-06 16:30 49.09106 -97.52937 805 ft 24 kts
2026-05-06 16:30 49.09277 -97.52915 809 ft 49 kts
2026-05-06 16:30 49.09953 -97.53042 1080 ft 93 kts 359°
2026-05-06 16:30 49.10624 -97.53135 1749 ft 100 kts 355°
2026-05-06 16:31 49.11316 -97.53108 2456 ft 100 kts 359°
2026-05-06 16:31 49.11996 -97.52979 3124 ft 101 kts 12°
2026-05-06 16:31 49.12535 -97.52231 3795 ft 105 kts 33°
2026-05-06 16:31 49.13170 -97.51952 4439 ft 94 kts 360°
2026-05-06 16:32 49.13809 -97.51688 5041 ft 96 kts
2026-05-06 16:32 49.14590 -97.51391 5121 ft 134 kts
2026-05-06 16:32 49.15517 -97.51008 5121 ft 139 kts
2026-05-06 16:32 49.16457 -97.50628 5109 ft 140 kts
2026-05-06 16:33 49.17403 -97.50252 5111 ft 140 kts
2026-05-06 16:33 49.18335 -97.49883 5107 ft 140 kts
2026-05-06 16:33 49.19285 -97.49507 5110 ft 142 kts
2026-05-06 16:34 49.21202 -97.48749 5107 ft 141 kts
2026-05-06 16:34 49.22149 -97.48374 5103 ft 141 kts
2026-05-06 16:34 49.23099 -97.47998 5105 ft 140 kts
2026-05-06 16:34 49.24044 -97.47623 5106 ft 140 kts
2026-05-06 16:35 49.24984 -97.47251 5103 ft 140 kts
2026-05-06 16:35 49.25929 -97.46877 5104 ft 140 kts
2026-05-06 16:35 49.26872 -97.46502 5107 ft 140 kts
2026-05-06 16:35 49.27812 -97.46130 5106 ft 140 kts
2026-05-06 16:36 49.28753 -97.45757 5102 ft 140 kts
2026-05-06 16:36 49.29694 -97.45382 5103 ft 140 kts
2026-05-06 16:36 49.30621 -97.45014 5103 ft 140 kts
2026-05-06 16:36 49.31562 -97.44640 5106 ft 140 kts
2026-05-06 16:37 49.32504 -97.44266 5105 ft 140 kts
2026-05-06 16:37 49.33452 -97.43888 5101 ft 140 kts
2026-05-06 16:37 49.34391 -97.43515 5101 ft 139 kts
2026-05-06 16:37 49.35333 -97.43140 5100 ft 140 kts
2026-05-06 16:38 49.36271 -97.42767 5105 ft 139 kts
2026-05-06 16:38 49.37207 -97.42394 5104 ft 139 kts
2026-05-06 16:38 49.38146 -97.42019 5103 ft 139 kts
2026-05-06 16:38 49.39080 -97.41648 5107 ft 139 kts
2026-05-06 16:39 49.40012 -97.41276 5104 ft 138 kts
2026-05-06 16:39 49.40942 -97.40905 5103 ft 138 kts
2026-05-06 16:39 49.41877 -97.40532 5105 ft 139 kts
2026-05-06 16:39 49.42812 -97.40159 5104 ft 139 kts
2026-05-06 16:40 49.43749 -97.39785 5105 ft 139 kts
2026-05-06 16:40 49.44676 -97.39415 5103 ft 139 kts
2026-05-06 16:40 49.45615 -97.39039 5103 ft 140 kts
2026-05-06 16:40 49.46558 -97.38661 5105 ft 140 kts
2026-05-06 16:41 49.47500 -97.38284 5110 ft 140 kts
2026-05-06 16:41 49.48440 -97.37898 5104 ft 141 kts 13°
2026-05-06 16:41 49.49273 -97.37141 5281 ft 134 kts 25°
2026-05-06 16:41 49.50076 -97.36462 5427 ft 128 kts 15°
2026-05-06 16:42 49.50915 -97.35879 5342 ft 141 kts 16°
2026-05-06 16:42 49.51896 -97.35614 5218 ft 143 kts 360°
2026-05-06 16:42 49.52901 -97.35443 5110 ft 146 kts
2026-05-06 16:42 49.53892 -97.35194 5110 ft 142 kts
2026-05-06 16:43 49.54857 -97.34929 5106 ft 140 kts
2026-05-06 16:43 49.55802 -97.34665 5104 ft 140 kts
2026-05-06 16:43 49.56761 -97.34395 5103 ft 140 kts
2026-05-06 16:43 49.57719 -97.34123 5098 ft 140 kts
2026-05-06 16:44 49.58670 -97.33852 5099 ft 139 kts
2026-05-06 16:44 49.59622 -97.33561 5099 ft 139 kts
2026-05-06 16:44 49.60572 -97.33271 5094 ft 139 kts
2026-05-06 16:44 49.61516 -97.32922 5099 ft 140 kts
2026-05-06 16:45 49.62454 -97.32535 5109 ft 140 kts
2026-05-06 16:45 49.63395 -97.32156 5110 ft 140 kts
2026-05-06 16:45 49.64337 -97.31777 5116 ft 140 kts
2026-05-06 16:45 49.65283 -97.31397 5112 ft 140 kts
2026-05-06 16:46 49.66223 -97.31022 5116 ft 140 kts
2026-05-06 16:46 49.67156 -97.30646 5113 ft 140 kts
2026-05-06 16:46 49.68098 -97.30267 5092 ft 141 kts
2026-05-06 16:46 49.69046 -97.29881 4911 ft 138 kts
2026-05-06 16:47 49.69968 -97.29508 4725 ft 137 kts
2026-05-06 16:47 49.70887 -97.29134 4544 ft 136 kts
2026-05-06 16:47 49.71803 -97.28768 4366 ft 136 kts
2026-05-06 16:47 49.72718 -97.28406 4184 ft 136 kts
2026-05-06 16:48 49.73624 -97.28041 3990 ft 130 kts 10°
2026-05-06 16:48 49.74461 -97.27642 3813 ft 121 kts 11°
2026-05-06 16:48 49.75263 -97.27343 3591 ft 116 kts 358°
2026-05-06 16:48 49.76070 -97.27235 3391 ft 116 kts
2026-05-06 16:49 49.76856 -97.27082 3252 ft 113 kts
2026-05-06 16:49 49.77633 -97.26879 3272 ft 112 kts
2026-05-06 16:49 49.78413 -97.26663 3246 ft 116 kts
2026-05-06 16:49 49.79253 -97.26500 2974 ft 130 kts
2026-05-06 16:50 49.80152 -97.26326 2817 ft 130 kts
2026-05-06 16:50 49.81075 -97.26139 2634 ft 136 kts
2026-05-06 16:50 49.82025 -97.25921 2439 ft 140 kts
2026-05-06 16:50 49.82910 -97.25711 2255 ft 110 kts
2026-05-06 16:51 49.83651 -97.25538 2103 ft 105 kts
2026-05-06 16:51 49.84287 -97.25390 1960 ft 79 kts
2026-05-06 16:51 49.84782 -97.25279 1845 ft 68 kts
2026-05-06 16:51 49.85253 -97.25173 1737 ft 69 kts
2026-05-06 16:52 49.85721 -97.25068 1626 ft 70 kts
2026-05-06 16:52 49.86180 -97.24960 1515 ft 63 kts 359°
2026-05-06 16:52 49.86591 -97.24867 1428 ft 58 kts 358°
2026-05-06 16:52 49.87005 -97.24772 1334 ft 60 kts 358°
2026-05-06 16:53 49.87426 -97.24673 1249 ft 62 kts 359°
2026-05-06 16:53 49.87859 -97.24575 1158 ft 62 kts 360°
2026-05-06 16:53 49.88287 -97.24476 1076 ft 64 kts
2026-05-06 16:53 49.88735 -97.24369 993 ft 65 kts 357°
2026-05-06 16:54 49.89167 -97.24277 931 ft 63 kts
2026-05-06 16:54 49.89598 -97.24184 826 ft 62 kts
2026-05-06 16:54 49.89990 -97.24078 789 ft 49 kts 355°
2026-05-06 16:54 49.90240 -97.24032 777 ft 15 kts
2026-05-06 16:55 49.90299 -97.24017 778 ft 21 kts
2026-05-06 16:55 49.90504 -97.24008 782 ft 37 kts
2026-05-06 16:55 49.90703 -97.23958 786 ft 28 kts
2026-05-06 16:55 49.90776 -97.23995 787 ft 7 kts 258°
2026-05-06 16:56 49.90776 -97.23997 787 ft 0 kts 259°
2026-05-06 16:56 49.90773 -97.24027 788 ft 14 kts 269°
2026-05-06 16:56 49.90738 -97.24296 786 ft 34 kts 255°
2026-05-06 16:57 49.90641 -97.24548 784 ft 18 kts 237°
2026-05-06 16:57 49.90570 -97.24563 782 ft 12 kts 175°
2026-05-06 16:57 49.90466 -97.24556 783 ft 18 kts 179°
2026-05-06 16:57 49.90316 -97.24556 781 ft 24 kts 184°
2026-05-06 16:58 49.90126 -97.24600 782 ft 29 kts 188°
2026-05-06 16:58 49.90010 -97.24564 781 ft 14 kts 125°
2026-05-06 16:58 49.89917 -97.24558 780 ft 14 kts 187°
2026-05-06 16:58 49.89850 -97.24602 781 ft 0 kts 263°